Regional Weather Roundup
Issued by NWS Sioux Falls, SD

Home | Current Version | Previous Version | Graphics & Text | Print | Product List | Glossary On
Versions: 1 2 3 4 5 6 7 8 9 10 11 12 13 14 15 16 17 18 19 20 21 22 23 24 25 26 27 28 29 30 31 32 33 34 35 36 37 38 39 40 41 42 43 44 45 46 47 48 49 50
000
ASUS43 KFSD 051010
RWRFSD

WEATHER ROUNDUP FOR SE SOUTH DAKOTA/SW MINNESOTA/NW IOWA
NATIONAL WEATHER SERVICE SIOUX FALLS SD
500 AM CDT THU MAY 05 2016

NOTE: "FAIR" INDICATES FEW OR NO CLOUDS BELOW 12,000 FEET WITH NO
SIGNIFICANT WEATHER AND OR OBSTRUCTIONS TO VISIBILITY.


SDZ038>040-050-052>070-051100-
SOUTHEAST SOUTH DAKOTA

CITY           SKY/WX    TMP DP  RH WIND       PRES   REMARKS
BROOKINGS      CLEAR     38  35  89 CALM      30.01S
CHAMBERLAIN    PTCLDY    50  45  83 SW3       30.02S
HURON          CLEAR     45  40  82 S5        29.99S
MADISON        FAIR      46  37  71 SW6       30.02S
MITCHELL       CLEAR     48  42  80 CALM      30.02S
SIOUX FALLS    CLEAR     41  35  79 CALM      30.03R
WINNER         FAIR      52  38  58 SW12      30.03F
YANKTON        CLEAR     45  37  76 CALM      30.03S
$$

MNZ071-072-080-081-089-090-097-098-051100-
SOUTHWEST MINNESOTA

CITY           SKY/WX    TMP DP  RH WIND       PRES   REMARKS
FAIRMONT       CLEAR     39  30  70 CALM      30.01F
JACKSON        CLEAR     41  34  75 CALM      30.02S
LUVERNE        CLEAR     37  34  87 CALM      30.03R
MARSHALL       CLEAR     42  33  70 SW8       30.00S
MONTEVIDEO     CLEAR     43  34  70 CALM      30.01S
PIPESTONE      CLEAR     43  34  70 CALM      30.01S
REDWOOD FALLS  CLEAR     43  29  57 CALM      30.00S
TRACY          CLEAR     46  34  62 SW7       30.01S
WINDOM         CLEAR     39  34  81 CALM      30.02S
WORTHINGTON    CLEAR     43  33  68 SW3       30.02S
$$

IAZ001>003-012>014-020>022-031-032-NEZ013-014-SDZ071-051100-
NORTHWEST IOWA

CITY           SKY/WX    TMP DP  RH WIND       PRES   REMARKS
CHEROKEE       CLEAR     38  38 100 CALM      30.03S
DENISON        CLEAR     39  37  93 CALM      30.01S
ESTHERVILLE    CLEAR     39  34  82 NW3       30.02R
LE MARS        CLEAR     41  39  93 CALM      30.04S
ORANGE CITY    CLEAR     46  36  66 CALM      30.03R
SHELDON        CLEAR     39  34  81 CALM      30.02R
SIOUX CITY     CLEAR     42  36  79 NW3       30.03S
SPENCER        CLEAR     38  35  89 NW3       30.03R
STORM LAKE     CLEAR     48  34  57 CALM      30.03S
$$

ABBREVIATIONS USED IN REMARKS
   TC - TEMPERATURE IN CELSIUS
  WCI - WIND CHILL INDEX
   HX - HEAT INDEX
  VSB - VISIBILITY




USA.gov is the U.S. government's official web portal to all federal, state and local government web resources and services.